Location: Fort Worth, Tx
(32.7431°N, 97.3695°W)
Time: 06:03:39
(UTC-05:00)

Altair - Pass Details

Date: 09 October 2023
Orbit: 1501 x 1682 km, 47.2° (Epoch: 06 December)

Event Time Altitude Azimuth Distance (km) Brightness Sun altitude
Rises 05:06:02 0° 289° (WNW) 4,771 - -42.6°
Reaches altitude 10° 05:09:33 10° 298° (WNW) 3,813 - -42.0°
Exits shadow 05:16:44 33° 345° (NNW) 2,494 8.5 -40.6°
Maximum altitude 05:18:13 34° 1° (N) 2,450 8.6 -40.3°
Drops below altitude 10° 05:27:08 10° 64° (ENE) 3,924 10.3 -38.5°
Sets 05:30:48 0° 73° (ENE) 4,925 11.1 -37.8°
